Regional Weather Roundup
Issued by NWS

Home | Current Version | Previous Version | Graphics & Text | Print | Product List | Glossary On
Versions: 1 2 3 4 5 6 7 8 9 10 11 12 13 14 15 16 17 18 19 20 21 22 23 24 25 26 27 28 29 30 31 32 33 34 35 36 37 38 39 40 41 42 43 44 45 46 47 48 49 50
000
ASUS43 KMPX 310401
RWRMN
WEATHER ROUNDUP FOR MINNESOTA
NATIONAL WEATHER SERVICE TWIN CITIES/CHANHASSEN MN
1100 PM CDT WED JUL 30 2014


NOTE: "FAIR" INDICATES FEW OR NO CLOUDS BELOW 12,000 FEET WITH NO
SIGNIFICANT WEATHER AND/OR OBSTRUCTIONS TO VISIBILITY. N/A MEANS
CURRENT SKY AND/OR WEATHER CONDITIONS ARE NOT AVAILABLE.

MNZ060>063-068>070-310500-
   Twin Cities Metro

CITY           SKY/WX    TMP DP  RH WIND       PRES   REMARKS
TWIN CITIES    CLEAR     72  58  61 W6        30.04S
ST PAUL        CLEAR     69  56  62 W3        30.03S
CRYSTAL        CLEAR     69  56  62 W6        30.03S
BLAINE         CLEAR     70  57  64 W5        30.04S
LAKEVILLE      CLEAR     64  57  77 SW3       30.05S
EDEN PRAIRIE   CLEAR     67  58  72 CALM      30.04S
SOUTH ST PAUL  CLEAR     70  57  63 W5        30.03S
LAKE ELMO      FAIR      63  57  82 CALM      30.04S
$$
MNZ001>005-007-008-013>017-022>024-027-028-310500-
   Northwest Minnesota

CITY           SKY/WX    TMP DP  RH WIND       PRES   REMARKS
BEMIDJI        CLEAR     62  55  76 W5        30.05S
HALLOCK        CLEAR     66  59  77 CALM      30.03S
ROSEAU           N/A     68  61  77 W6        30.02S
WARROAD        CLEAR     66  61  82 W6        30.02S
THIEF RVR FALL CLEAR     64  57  77 CALM      30.05S
CROOKSTON      CLEAR     64  61  88 CALM      30.05S
FOSSTON        CLEAR     57  52  82 CALM      30.07S
DETROIT LAKES  CLEAR     64  59  82 CALM      30.08S
MOORHEAD       CLEAR     68  63  83 CALM      30.06S
PARK RAPIDS    CLEAR     59  54  83 W3        30.06S
$$
MNZ006-009>011-018-025>026-310500-
   North Central Minnesota

CITY           SKY/WX    TMP DP  RH WIND       PRES   REMARKS
BAUDETTE       CLEAR     67  59  75 W5        30.01S
FLAG ISLAND    PTCLDY    72  61  68 NW9       29.99S
INTL FALLS     CLEAR     59  56  89 CALM      29.99S
WASKISH        CLEAR     70  61  73 W7        30.02S
BIG FORK       CLEAR     61  55  82 SW1       30.02F
LONGVILLE      CLEAR     57  57 100 W3        30.04S
GRAND RAPIDS   CLEAR     66  55  68 W7        30.03S
CRANE LAKE     PTCLDY    55  55 100 CALM      30.01S FOG
ORR            PTCLDY    63  57  82 CALM      29.98R
COOK           HVY RAIN  64  59  82 NW8       30.02R
$$
MNZ012-019>021-037-310500-
   Northeast Minnesota

CITY           SKY/WX    TMP DP  RH WIND       PRES   REMARKS
DULUTH         CLEAR     66  56  70 W7        30.00R
ELY            PTCLDY    57  55  94 CALM      30.00S
HIBBING        CLEAR     67  55  65 W7        30.01S
EVELETH        CLEAR     63  55  77 NW6       30.01S
DULUTH HARBOR  PTCLDY    70  61  73 W8        29.98S
TWO HARBORS    MOCLDY    64  55  72 CALM      29.96S
SILVER BAY     CLEAR     55  55 100 CALM      29.97R FOG
GRAND MARAIS     N/A     48  47  96 CALM      29.95S
G MARAIS ARPRT CLEAR     55  46  71 NW3       30.00S
$$
MNZ029>031-032-039>041-046>048-054>057-064-310500-
   West Central Minnesota

CITY           SKY/WX    TMP DP  RH WIND       PRES   REMARKS
FERGUS FALLS   CLEAR     66  55  68 CALM      30.06S
WHEATON        CLEAR     63  57  82 SW3       30.09R
MORRIS         CLEAR     63  57  82 CALM      30.07S
ALEXANDRIA     CLEAR     64  56  75 W3        30.09S
ELBOW LAKE     FAIR      64  57  76 CALM      30.06S
WADENA         CLEAR     57  54  88 CALM      30.06S
GLENWOOD       CLEAR     63  55  77 W5        30.08S
APPLETON       CLEAR     63  57  82 CALM      30.07S
BENSON         CLEAR     61  57  88 CALM      30.07S
ORTONVILLE     CLEAR     64  55  72 W3        30.08S
MADISON        CLEAR     64  61  88 SW5       30.08S
WILLMAR        FAIR      63  55  77 CALM      30.09S
$$
MNZ033>034-036-042>043-049>051-058-059-310500-
   Central Minnesota

CITY           SKY/WX    TMP DP  RH WIND       PRES   REMARKS
ST CLOUD       CLEAR     66  55  67 NW5       30.05S
SAUK CENTRE    FAIR      59  56  89 W3        30.07S
PAYNESVILLE    CLEAR     55  54  95 SW3       30.07S
AITKIN         CLEAR     66  57  72 CALM      30.03S
PINE RIVER     CLEAR     61  55  82 CALM      30.08S
BRAINERD       CLEAR     61  57  87 CALM      30.05S
STAPLES        CLEAR     61  54  77 CALM      30.06S
LONG PRAIRIE   FAIR      57  55  94 CALM      30.07S
LITTLE FALLS   CLEAR     59  54  82 CALM      30.06S
LITCHFIELD       N/A     66  61  82 CALM      30.08R
BUFFALO        CLEAR     67  58  73 W3        30.06S
MAPLE LAKE     CLEAR     62  58  86 CALM      30.06S
$$
MNZ037-044-045-052-053-310500-
   East Central Minnesota

CITY           SKY/WX    TMP DP  RH WIND       PRES   REMARKS
PRINCETON      CLEAR     64  57  77 CALM      30.05R
MORA           CLEAR     64  59  82 CALM      30.05S
CAMBRIDGE      CLEAR     66  55  68 CALM      30.02S
RUSH CITY      CLEAR     63  58  82 CALM      30.03S
MOOSE LAKE     PTCLDY    61  55  82 W5        30.00S
HINCKLEY       FAIR      63  59  88 W5        30.02S
CLOQUET        CLEAR     64  55  72 W6        30.01S
MCGREGOR       CLEAR     64  59  82 CALM      30.03S
$$
MNZ071>073-080-081-089-090-097-098-310500-
   Southwest Minnesota

CITY           SKY/WX    TMP DP  RH WIND       PRES   REMARKS
MONTEVIDEO     CLEAR     63  52  67 CALM      30.09R
GRANITE FALLS  CLEAR     58  56  92 CALM      30.10R
CANBY          CLEAR     60  57  89 CALM      30.11R
MARSHALL       CLEAR     63  55  77 SW3       30.09R
REDWOOD FALLS  CLEAR     66  57  72 W3        30.08S
OLIVIA         CLEAR     61  55  82 CALM      30.07S
PIPESTONE      CLEAR     63  57  82 CALM      30.11F
WINDOM         CLEAR     63  57  82 CALM      30.11S
WORTHINGTON    PTCLDY    61  55  82 CALM      30.13R
JACKSON        CLEAR     59  55  88 CALM      30.12R
TRACY          PTCLDY    65  57  74 CALM      30.11R
SLAYTON        PTCLDY    63  57  82 CALM      30.12S
$$
MNZ065>067-074>077-082>085-091>093-310500-
   South Central Minnesota

CITY           SKY/WX    TMP DP  RH WIND       PRES   REMARKS
MANKATO        CLEAR     66  54  63 W5        30.07S
NEW ULM        CLEAR     61  59  94 W3        30.08S
ST JAMES       CLEAR     63  57  82 SW5       30.10R
FAIRMONT       CLEAR     63  48  59 W5        30.09S
GLENCOE        CLEAR     67  57  70 W5        30.06S
FARIBAULT      CLEAR     64  55  72 SW3       30.07S
OWATONNA       CLEAR     61  57  88 SW5       30.07S
WASECA         CLEAR     59  54  82 CALM      30.09S
ALBERT LEA     CLEAR     64  57  77 CALM      30.08S
$$
MNZ078>079-086>088-094>096-310500-
   Southeast Minnesota

CITY           SKY/WX    TMP DP  RH WIND       PRES   REMARKS
ROCHESTER      CLEAR     62  57  83 W8        30.08R
RED WING       CLEAR     63  59  88 CALM      30.02S
STANTON        CLEAR     63  58  82 CALM      30.04S
DODGE CENTER   CLEAR     63  57  82 W6        30.08R
WINONA         CLEAR     70  61  73 CALM      30.03S
AUSTIN         CLEAR     66  57  72 W3        30.07S
PRESTON        CLEAR     63  61  93 W6        30.07S
$$
ABBREVIATIONS USED IN REMARKS
   TC - TEMPERATURES IN CELSIUS
  WCI - WIND CHILL INDEX
   HX - HEAT INDEX
  VSB - VISIBILITY
$$


USA.gov is the U.S. government's official web portal to all federal, state and local government web resources and services.